Location: Lobstick
(53.6000°N, 115.1667°W)
Time: 23:34:31
(UTC+00:00)

ITAMSAT 1 - Visible Passes

Search period start: 01 December 2023 00:00
Search period end: 11 December 2023 00:00
Orbit: 783 x 795 km, 98.8° (Epoch: 30 November)

Date Brightness Start Highest point End Pass type
(mag) Time Alt. Az. Time Alt. Az. Time Alt. Az.
01 Dec 9.7 02:09:49 14° NNE 02:09:49 14° NNE 02:10:50 10° N visible
01 Dec 10.2 03:50:31 13° NNW 03:50:31 13° NNW 03:51:00 10° NNW visible
02 Dec 9.7 01:39:42 12° NNE 01:39:42 12° NNE 01:40:26 10° NNE visible
02 Dec 10.0 03:20:25 14° N 03:20:25 14° N 03:21:10 10° NNW visible
03 Dec 9.8 02:50:19 15° N 02:50:19 15° N 02:51:12 10° N visible
04 Dec 9.7 02:20:12 14° N 02:20:12 14° N 02:21:05 10° N visible
04 Dec 10.4 04:00:55 11° NNW 04:00:55 11° NNW 04:01:05 10° NNW visible
05 Dec 9.7 01:50:05 12° NNE 01:50:05 12° NNE 01:50:47 10° N visible
05 Dec 10.1 03:30:47 13° NNW 03:30:47 13° NNW 03:31:18 10° NNW visible
06 Dec 9.8 01:19:57 10° NNE 01:19:57 10° NNE 01:20:00 10° NNE visible
06 Dec 9.9 03:00:40 14° N 03:00:40 14° N 03:01:22 10° N visible
07 Dec 9.8 02:30:33 14° N 02:30:33 14° N 02:31:19 10° N visible
08 Dec 9.8 02:00:25 13° NNE 02:00:25 13° NNE 02:01:05 10° N visible
08 Dec 10.3 03:41:08 11° NNW 03:41:08 11° NNW 03:41:24 10° NNW visible
09 Dec 9.8 01:30:18 11° NNE 01:30:18 11° NNE 01:30:31 10° NNE visible
09 Dec 10.0 03:11:00 13° N 03:11:00 13° N 03:11:31 10° N visible
10 Dec 9.9 02:40:52 13° N 02:40:52 13° N 02:41:30 10° N visible
